Location: Buckland
(65.9785°N, 161.1281°W)
Time: 08:34:49
(UTC+00:00)

Transit 4A - Pass Details

Date: 06 August 2021
Orbit: 870 x 974 km, 66.8° (Epoch: 27 September)

Event Time Altitude Azimuth Distance (km) Brightness Sun altitude
Exits shadow 09:42:19 - 185° (S) 2,925 9.9 -6.5°
Reaches altitude 10° 09:43:32 10° 180° (S) 2,527 9.6 -6.5°
Maximum altitude 09:48:26 29° 122° (ESE) 1,547 8.7 -6.6°
Drops below altitude 10° 09:53:22 10° 65° (ENE) 2,532 10.3 -6.8°
Sets 09:56:08 0° 54° (NE) 3,478 11.2 -6.8°
